AMC-14

Last updated on Oct. 21, 2020, 5:57 a.m. UTC

1 32708U 08011A   20293.99007753  .00000076  00000-0  00000-0 0  9999
2 32708  21.1596  45.8343 0035029   4.8196 352.7299  1.00276719 47371
UTC
Height (km)
Latitude
Longitude
Inclination
Orbital Period
UTC large
Height (km)
Speed (km/s)
/
Latitude / Longitude
Inclination (degrees)
Orbital Period (minutes)
Azimuth
Elevation
Range (km)
Doppler Factor
iOS Compass Heading
iOS Angle

Next 30 passes for location: Hong Kong

Rise time Rise Azimuth (degrees) Set time Set Azimuth (degrees) Duration Max altitude (degrees)

No matching passes for this satellites